QTR908 OTHH-YSSY

Flight info

Callsign QTR908
Flight time N/A
Altitude 33000
Route BUNDU B415 SIXIV N318 TOLDA P570 KITAL L894 BIBGO/N0502F350 DCT SABEK DCT 10S083E 14S086E/N0492F370 19S090E 24S095E 25S096E 2800S10030E 30S104E 32S109E/N0476F390 34S115E DCT NIPON DCT VIMUS DCT COBEL DCT LESON DCT TUTNO Y135 TEDUS J15 AD H247 CULIN Y59 RIVET
Aircraft A359/H-SDE2E3GHIJ3J4J5LM1ORWXY/LB1D1

Departure

Time 2026-05-03 23:43
Airport Hamad International Airport (OTHH)

Arrival

Time N/A
Airport Sydney Kingsford Smith International Airport (YSSY)
Time Latitude Longitude Altitude Speed Heading
2026-05-03 22:47 25.26731 51.61222 28 ft 0 kts 264°
2026-05-03 23:26 25.26731 51.61226 28 ft 2 kts 264°
2026-05-03 23:26 25.26733 51.61243 27 ft 2 kts 271°
2026-05-03 23:26 25.26731 51.61259 27 ft 2 kts 287°
2026-05-03 23:26 25.26726 51.61274 25 ft 2 kts 302°
2026-05-03 23:27 25.26717 51.61287 26 ft 2 kts 316°
2026-05-03 23:27 25.26706 51.61298 26 ft 2 kts 316°
2026-05-03 23:27 25.26695 51.61310 25 ft 2 kts 320°
2026-05-03 23:27 25.26684 51.61320 27 ft 2 kts 324°
2026-05-03 23:28 25.26671 51.61328 26 ft 2 kts 333°
2026-05-03 23:28 25.26658 51.61335 25 ft 2 kts 336°
2026-05-03 23:28 25.26645 51.61342 26 ft 2 kts 333°
2026-05-03 23:28 25.26641 51.61344 27 ft 0 kts 340°
2026-05-03 23:34 25.26651 51.61340 25 ft 4 kts 340°
2026-05-03 23:34 25.26698 51.61323 27 ft 8 kts 347°
2026-05-03 23:34 25.26742 51.61329 28 ft 6 kts 28°
2026-05-03 23:34 25.26785 51.61353 28 ft 8 kts 26°
2026-05-03 23:35 25.26839 51.61378 28 ft 9 kts 22°
2026-05-03 23:35 25.26903 51.61407 28 ft 11 kts 22°
2026-05-03 23:35 25.26977 51.61442 28 ft 12 kts 28°
2026-05-03 23:35 25.27014 51.61505 28 ft 10 kts 64°
2026-05-03 23:36 25.27044 51.61587 28 ft 9 kts 88°
2026-05-03 23:36 25.27026 51.61606 28 ft 5 kts 138°
2026-05-03 23:36 25.26982 51.61631 28 ft 10 kts 159°
2026-05-03 23:36 25.26898 51.61667 28 ft 16 kts 159°
2026-05-03 23:37 25.26785 51.61716 28 ft 18 kts 158°
2026-05-03 23:37 25.26673 51.61767 28 ft 17 kts 158°
2026-05-03 23:37 25.26563 51.61815 28 ft 17 kts 158°
2026-05-03 23:37 25.26455 51.61862 28 ft 17 kts 158°
2026-05-03 23:38 25.26350 51.61909 28 ft 17 kts 158°
2026-05-03 23:38 25.26238 51.61962 28 ft 16 kts 142°
2026-05-03 23:38 25.26216 51.62029 28 ft 8 kts 89°
2026-05-03 23:38 25.26196 51.62074 29 ft 6 kts 144°
2026-05-03 23:39 25.26151 51.62103 29 ft 9 kts 156°
2026-05-03 23:39 25.26072 51.62138 29 ft 15 kts 158°
2026-05-03 23:39 25.25978 51.62200 29 ft 14 kts 118°
2026-05-03 23:39 25.25984 51.62279 29 ft 9 kts 68°
2026-05-03 23:40 25.26007 51.62343 29 ft 9 kts 69°
2026-05-03 23:40 25.26029 51.62407 29 ft 9 kts 70°
2026-05-03 23:40 25.26062 51.62444 28 ft 4 kts 12°
2026-05-03 23:40 25.26079 51.62440 28 ft 4 kts 352°
2026-05-03 23:41 25.26109 51.62428 28 ft 5 kts 332°
2026-05-03 23:41 25.26120 51.62423 28 ft 0 kts 339°
2026-05-03 23:42 25.26182 51.62397 29 ft 33 kts 338°
2026-05-03 23:42 25.26562 51.62229 28 ft 84 kts 339°
2026-05-03 23:43 25.27252 51.61927 28 ft 128 kts 339°
2026-05-03 23:43 25.28205 51.61508 29 ft 166 kts 338°
2026-05-03 23:43 25.29288 51.61027 569 ft 158 kts 338°
2026-05-03 23:43 25.30402 51.60745 797 ft 177 kts 356°
2026-05-03 23:44 25.31707 51.60868 1036 ft 190 kts 16°
2026-05-03 23:44 25.32657 51.61856 1313 ft 198 kts 70°
2026-05-03 23:44 25.32570 51.63331 1549 ft 205 kts 114°
2026-05-03 23:44 25.31522 51.64435 1636 ft 219 kts 158°
2026-05-03 23:45 25.30001 51.64562 1769 ft 226 kts 192°
2026-05-03 23:45 25.28416 51.64295 1941 ft 238 kts 182°
2026-05-03 23:45 25.26772 51.64732 2087 ft 252 kts 150°
2026-05-03 23:45 25.25476 51.66052 2342 ft 258 kts 121°
2026-05-03 23:46 25.24895 51.67914 2676 ft 258 kts 91°
2026-05-03 23:46 25.24919 51.69897 3053 ft 260 kts 83°
2026-05-03 23:46 25.25355 51.71854 3269 ft 266 kts 60°
2026-05-03 23:46 25.26322 51.73617 3524 ft 272 kts 53°
2026-05-03 23:47 25.27379 51.75366 3754 ft 276 kts 52°
2026-05-03 23:47 25.28468 51.77123 3951 ft 277 kts 52°
2026-05-03 23:47 25.29569 51.78872 4002 ft 278 kts 52°
2026-05-03 23:47 25.30680 51.80623 4005 ft 278 kts 51°
2026-05-03 23:48 25.31794 51.82373 4007 ft 278 kts 51°
2026-05-03 23:48 25.32888 51.84145 4012 ft 280 kts 56°
2026-05-03 23:48 25.33526 51.86187 4129 ft 289 kts 84°
2026-05-03 23:48 25.33307 51.88408 4583 ft 292 kts 101°
2026-05-03 23:49 25.32855 51.90608 4972 ft 295 kts 102°
2026-05-03 23:49 25.32390 51.92828 5382 ft 297 kts 102°
2026-05-03 23:49 25.31936 51.95037 5796 ft 300 kts 102°
2026-05-03 23:49 25.31477 51.97294 6203 ft 302 kts 102°
2026-05-03 23:50 25.31018 51.99573 6605 ft 304 kts 101°
2026-05-03 23:50 25.30713 52.01086 6881 ft 305 kts 101°
2026-05-03 23:50 25.30099 52.04148 7480 ft 305 kts 101°
2026-05-03 23:50 25.29637 52.06449 7900 ft 307 kts 101°
2026-05-03 23:51 25.29131 52.08747 8313 ft 309 kts 107°
2026-05-03 23:51 25.28120 52.10841 8728 ft 311 kts 127°
2026-05-03 23:51 25.26790 52.12727 9158 ft 312 kts 129°
2026-05-03 23:51 25.25420 52.14602 9597 ft 314 kts 129°
2026-05-03 23:52 25.24051 52.16486 9990 ft 316 kts 129°
2026-05-03 23:52 25.22666 52.18403 10246 ft 324 kts 128°
2026-05-03 23:52 25.21726 52.19709 10364 ft 330 kts 128°
2026-05-03 23:52 25.19778 52.22420 10602 ft 344 kts 128°
2026-05-03 23:53 25.18784 52.23804 10724 ft 351 kts 128°
2026-05-03 23:53 25.17248 52.25943 10917 ft 360 kts 128°
2026-05-03 23:53 25.15668 52.28145 11085 ft 370 kts 128°
2026-05-03 23:53 25.13517 52.31139 11324 ft 382 kts 128°
2026-05-03 23:54 25.12392 52.32704 11443 ft 388 kts 128°
2026-05-03 23:54 25.10701 52.35062 11611 ft 396 kts 128°
2026-05-03 23:54 25.08969 52.37471 11801 ft 403 kts 128°
2026-05-03 23:54 25.07214 52.39907 12078 ft 407 kts 128°
2026-05-03 23:55 25.05450 52.42356 12420 ft 410 kts 128°
2026-05-03 23:55 25.03693 52.44795 12760 ft 412 kts 128°
2026-05-03 23:55 25.01911 52.47277 13105 ft 414 kts 127°
2026-05-03 23:55 25.00404 52.49973 13426 ft 414 kts 114°
2026-05-03 23:56 24.99927 52.51161 13586 ft 414 kts 111°
2026-05-03 23:56 24.98916 52.54125 13899 ft 415 kts 107°
2026-05-03 23:56 24.98023 52.57164 14155 ft 418 kts 105°
2026-05-03 23:57 24.97175 52.60236 14447 ft 420 kts 105°
2026-05-03 23:57 24.96339 52.63329 14740 ft 422 kts 104°
2026-05-03 23:57 24.95546 52.66454 15021 ft 424 kts 104°
2026-05-03 23:57 24.94779 52.69598 15313 ft 426 kts 103°
2026-05-03 23:58 24.94015 52.72760 15615 ft 428 kts 103°
2026-05-03 23:58 24.93247 52.75929 15925 ft 430 kts 103°
2026-05-03 23:58 24.92466 52.79121 16216 ft 432 kts 104°
2026-05-03 23:58 24.91677 52.82320 16505 ft 434 kts 104°
2026-05-03 23:59 24.90879 52.85531 16790 ft 436 kts 104°
2026-05-03 23:59 24.90074 52.88758 17091 ft 438 kts 104°
2026-05-03 23:59 24.89263 52.92003 17374 ft 440 kts 104°
2026-05-03 23:59 24.88449 52.95259 17649 ft 442 kts 104°
2026-05-04 00:00 24.87640 52.98490 17937 ft 444 kts 104°
2026-05-04 00:00 24.86808 53.01809 18193 ft 446 kts 104°
2026-05-04 00:00 24.85989 53.05072 18439 ft 447 kts 104°
2026-05-04 00:00 24.84508 53.10971 18886 ft 450 kts 104°
2026-05-04 00:01 24.81143 53.24338 19857 ft 456 kts 104°
2026-05-04 00:01 24.77720 53.37877 20812 ft 462 kts 104°
2026-05-04 00:01 24.74401 53.50956 21709 ft 468 kts 104°
2026-05-04 00:01 24.70870 53.64812 22656 ft 473 kts 105°
2026-05-04 00:02 24.67260 53.78914 23502 ft 480 kts 105°
2026-05-04 00:02 24.63651 53.92959 24156 ft 488 kts 105°
2026-05-04 00:02 24.59923 54.07405 24802 ft 495 kts 105°
2026-05-04 00:02 24.56118 54.22083 25458 ft 503 kts 105°
2026-05-04 00:03 24.52252 54.36932 26114 ft 510 kts 105°
2026-05-04 00:03 24.48309 54.52010 26778 ft 517 kts 105°
2026-05-04 00:03 24.44294 54.67297 27456 ft 524 kts 106°
2026-05-04 00:03 24.40212 54.82767 28116 ft 531 kts 106°
2026-05-04 00:04 24.36056 54.98451 28738 ft 537 kts 106°
2026-05-04 00:04 24.30258 55.13504 29256 ft 542 kts 123°
2026-05-04 00:04 24.22014 55.27404 29780 ft 547 kts 124°
2026-05-04 00:04 24.14735 55.42141 30251 ft 552 kts 116°
2026-05-04 00:05 24.08137 55.57303 30948 ft 549 kts 116°
2026-05-04 00:05 24.01577 55.72154 31574 ft 548 kts 117°
2026-05-04 00:05 23.94842 55.87322 32234 ft 547 kts 117°
2026-05-04 00:05 23.88280 56.02064 32812 ft 546 kts 117°
2026-05-04 00:06 23.74058 56.31679 32864 ft 551 kts 119°
2026-05-04 00:06 23.59747 56.61295 32868 ft 551 kts 119°
2026-05-04 00:07 23.45395 56.90808 32875 ft 551 kts 119°
2026-05-04 00:07 23.31358 57.20419 32889 ft 551 kts 116°
2026-05-04 00:08 23.17788 57.50390 32902 ft 551 kts 116°
2026-05-04 00:08 23.04100 57.80297 32861 ft 552 kts 116°
2026-05-04 00:09 22.90378 58.10087 32840 ft 552 kts 117°
2026-05-04 00:09 22.76644 58.39715 32828 ft 552 kts 117°
2026-05-04 00:10 22.59026 58.65987 32813 ft 543 kts 150°
2026-05-04 00:10 22.33217 58.82833 32809 ft 542 kts 151°
2026-05-04 00:11 22.07439 58.99739 32793 ft 542 kts 151°
2026-05-04 00:11 21.81574 59.16616 32769 ft 542 kts 150°
2026-05-04 00:12 21.55791 59.33382 32757 ft 542 kts 150°
2026-05-04 00:12 21.29898 59.50141 32750 ft 542 kts 150°
2026-05-04 00:13 21.04049 59.66806 32754 ft 542 kts 150°
2026-05-04 00:13 20.78371 59.83281 32752 ft 541 kts 150°
2026-05-04 00:14 20.52529 59.99793 32765 ft 540 kts 150°
2026-05-04 00:14 20.26695 60.16235 32774 ft 540 kts 150°
2026-05-04 00:15 20.01428 60.33376 32779 ft 540 kts 140°
2026-05-04 00:15 19.79148 60.54568 32782 ft 539 kts 139°
2026-05-04 00:16 19.56757 60.75759 32786 ft 538 kts 139°
2026-05-04 00:16 19.34384 60.96854 32785 ft 537 kts 139°
2026-05-04 00:17 19.12056 61.17826 32791 ft 535 kts 139°
2026-05-04 00:17 18.89803 61.38649 32792 ft 534 kts 139°
2026-05-04 00:18 18.67701 61.59255 32797 ft 533 kts 138°
2026-05-04 00:18 18.45438 61.79937 32798 ft 532 kts 138°
2026-05-04 00:19 18.24046 61.99739 32799 ft 532 kts 138°
2026-05-04 00:19 18.01816 62.20246 32805 ft 531 kts 138°